period_start,C,m1,H,J0,J1,J2,J3,J4,J5,JA,JB,JC,JD,JJ,JK,JN,#
2013-11-13 00:00:33,0.10,3.97,0.00,24.58,26.27,29.04,5.88,30.58,1003.43,2045.99,2121.40,2408.01,2565.01,349.65,317.75,31.82,0000 0000 0000 0000 000000
2013-11-13 00:01:34,0.10,3.97,0.00,24.59,26.27,29.05,5.88,30.71,1003.43,2045.99,2121.16,2408.00,2565.00,349.96,317.81,31.83,0000 0000 0000 0000 000000
2013-11-13 00:02:34,0.06,3.97,0.00,24.56,26.27,29.01,5.88,30.42,1003.43,2045.99,2121.05,2408.00,2565.00,349.81,317.90,31.83,0000 0000 0000 0000 000000
2013-11-13 00:03:34,0.03,3.97,0.00,24.56,26.27,28.98,5.98,30.83,1003.43,2045.99,2121.02,2408.00,2564.91,349.87,317.78,31.84,0000 0000 0000 0000 000000
2013-11-13 00:04:34,0.03,3.97,0.00,24.56,26.27,29.04,5.88,30.25,1003.43,2045.99,2121.00,2407.98,2564.67,350.70,318.64,31.85,0000 0000 0000 0000 000000
2013-11-13 00:05:35,0.07,3.97,0.00,24.55,26.27,29.06,5.90,30.58,1003.43,2045.99,2120.99,2407.80,2564.33,351.04,319.03,31.85,0000 0000 0000 0000 000000
2013-11-13 00:06:35,0.13,3.97,0.00,24.56,26.27,29.09,5.83,30.38,1003.43,2045.99,2120.89,2407.53,2564.12,350.18,318.25,31.86,0000 0000 0000 0000 000000
2013-11-13 00:07:35,0.18,3.97,0.00,24.55,26.27,29.04,5.88,30.54,1003.43,2045.99,2120.51,2407.23,2564.04,350.38,318.44,31.86,0000 0000 0000 0000 000000
2013-11-13 00:08:36,0.20,3.97,0.00,24.56,26.27,29.01,5.73,30.67,1003.43,2045.99,2120.21,2407.10,2564.00,349.01,317.17,31.87,0000 0000 0000 0000 000000
2013-11-13 00:09:36,0.12,3.97,0.00,24.56,26.27,29.05,5.80,30.75,1003.44,2045.99,2120.08,2407.04,2564.00,349.09,317.27,31.88,0000 0000 0000 0000 000000
2013-11-13 00:10:36,0.05,3.97,0.00,24.53,26.27,29.08,5.87,30.54,1003.46,2045.99,2120.03,2407.01,2563.98,349.58,317.63,31.88,0000 0000 0000 0000 000000
2013-11-13 00:11:37,0.02,3.97,0.00,24.53,26.27,29.02,5.93,30.50,1003.46,2045.99,2120.00,2407.00,2563.97,351.13,319.15,31.89,0000 0000 0000 0000 000000
2013-11-13 00:12:37,0.02,3.97,0.00,24.53,26.27,29.00,5.96,30.75,1003.45,2045.99,2119.80,2406.99,2563.86,349.89,318.03,31.89,0000 0000 0000 0000 000000
2013-11-13 00:13:37,0.09,3.97,0.00,24.52,26.26,29.02,5.85,30.71,1003.43,2046.00,2119.41,2406.98,2563.65,349.75,318.08,31.90,0000 0000 0000 0000 000000
2013-11-13 00:14:37,0.16,3.98,0.00,24.54,26.26,29.01,5.73,30.79,1003.43,2046.00,2119.16,2406.87,2563.36,350.34,318.42,31.90,0000 0000 0000 0000 000000
2013-11-13 00:15:37,0.18,3.98,0.00,24.57,26.25,29.02,5.91,30.50,1003.43,2046.00,2119.05,2406.51,2563.14,349.75,317.85,31.91,0000 0000 0000 0000 000000
2013-11-13 00:16:38,0.17,3.98,0.00,24.54,26.25,29.02,5.89,30.67,1003.43,2046.00,2119.02,2406.26,2563.05,349.71,317.85,31.92,0000 0000 0000 0000 000000
2013-11-13 00:17:38,0.12,3.98,0.00,24.51,26.25,28.99,5.92,30.71,1003.44,2046.00,2118.99,2406.11,2563.01,350.83,318.90,31.92,0000 0000 0000 0000 000000
2013-11-13 00:18:38,0.06,3.98,0.00,24.50,26.25,29.00,5.89,30.92,1003.44,2046.01,2118.94,2406.04,2563.00,350.24,318.38,31.93,0000 0000 0000 0000 000000
2013-11-13 00:19:39,0.05,3.98,0.00,24.51,26.25,29.00,5.87,30.54,1003.45,2046.00,2118.67,2406.01,2562.97,349.98,318.44,31.93,0000 0000 0000 0000 000000
2013-11-13 00:20:39,0.08,3.98,0.00,24.53,26.25,28.99,5.88,30.58,1003.45,2046.00,2118.30,2406.00,2562.97,350.90,319.04,31.94,0000 0000 0000 0000 000000
2013-11-13 00:21:39,0.09,3.98,0.00,24.53,26.25,29.06,5.93,30.79,1003.45,2046.00,2118.12,2405.99,2562.93,350.25,318.31,31.95,0000 0000 0000 0000 000000
2013-11-13 00:22:39,0.06,3.98,0.00,24.51,26.25,29.01,5.78,30.63,1003.43,2046.00,2118.04,2405.94,2562.73,349.18,317.40,31.95,0000 0000 0000 0000 000000
2013-11-13 00:23:40,0.09,3.98,0.00,24.52,26.25,29.04,5.74,30.58,1003.43,2046.00,2118.01,2405.79,2562.36,349.22,317.42,31.96,0000 0000 0000 0000 000000
2013-11-13 00:24:40,0.12,3.98,0.00,24.52,26.25,29.02,5.83,30.50,1003.43,2046.00,2117.99,2405.50,2562.16,350.03,317.75,31.96,0000 0000 0000 0000 000000
2013-11-13 00:25:40,0.15,3.98,0.00,24.53,26.25,29.02,5.73,30.67,1003.44,2046.00,2117.79,2405.22,2562.06,349.95,317.80,31.97,0000 0000 0000 0000 000000
2013-11-13 00:26:40,0.17,3.98,0.00,24.52,26.25,29.02,5.74,30.54,1003.45,2046.01,2117.44,2405.12,2562.02,349.28,317.49,31.97,0000 0000 0000 0000 000000
2013-11-13 00:27:41,0.15,3.98,0.00,24.53,26.25,29.05,5.83,30.38,1003.44,2046.01,2117.20,2405.05,2562.00,349.55,317.67,31.98,0000 0000 0000 0000 000000
2013-11-13 00:28:41,0.08,3.98,0.00,24.54,26.25,29.02,6.00,30.88,1003.44,2046.01,2117.07,2405.01,2561.99,350.20,318.21,31.99,0000 0000 0000 0000 000000
2013-11-13 00:29:41,0.04,3.98,0.00,24.52,26.24,29.04,5.95,30.50,1003.43,2046.00,2117.03,2405.00,2561.99,350.36,318.42,31.99,0000 0000 0000 0000 000000
2013-11-13 00:30:42,0.01,3.98,0.00,24.55,26.25,29.06,5.87,30.71,1003.43,2046.00,2117.00,2404.99,2561.89,349.99,318.30,32.00,0000 0000 0000 0000 000000
2013-11-13 00:31:42,0.04,3.99,0.00,24.56,26.24,28.96,5.77,30.63,1003.44,2046.02,2116.95,2404.99,2561.70,349.33,317.23,32.00,0000 0000 0000 0000 000000
2013-11-13 00:32:42,0.05,3.99,0.00,24.54,26.24,29.00,5.83,30.63,1003.43,2046.03,2116.78,2404.91,2561.41,349.43,317.79,32.01,0000 0000 0000 0000 000000
2013-11-13 00:33:42,0.18,3.99,0.00,24.55,26.23,28.99,5.72,30.63,1003.43,2046.02,2116.35,2404.60,2561.18,349.45,317.08,32.02,0000 0000 0000 0000 000000
2013-11-13 00:34:42,0.23,3.99,0.00,24.53,26.23,28.97,5.80,30.58,1003.43,2046.01,2116.14,2404.26,2561.07,349.55,317.72,32.02,0000 0000 0000 0000 000000
2013-11-13 00:35:43,0.16,3.99,0.00,24.53,26.22,28.99,5.74,30.58,1003.44,2046.01,2116.05,2404.14,2561.03,349.05,317.26,32.03,0000 0000 0000 0000 000000
2013-11-13 00:36:43,0.07,3.99,0.00,24.50,26.22,28.99,5.96,30.33,1003.44,2046.02,2116.01,2404.05,2561.01,351.85,319.83,32.03,0000 0000 0000 0000 000000
2013-11-13 00:37:43,0.05,3.99,0.00,24.52,26.22,28.96,5.91,30.58,1003.44,2046.01,2116.00,2404.01,2560.99,350.13,318.25,32.04,0000 0000 0000 0000 000000
2013-11-13 00:38:43,0.01,3.99,0.00,24.50,26.22,28.96,5.87,30.88,1003.44,2046.02,2115.99,2404.00,2560.94,349.55,317.75,32.05,0000 0000 0000 0000 000000
2013-11-13 00:39:44,0.02,3.99,0.00,24.50,26.22,28.95,5.78,30.46,1003.43,2046.02,2115.91,2404.00,2560.80,350.55,318.65,32.05,0000 0000 0000 0000 000000
2013-11-13 00:40:44,0.06,3.99,0.00,24.49,26.22,28.96,5.73,30.54,1003.44,2046.02,2115.60,2404.00,2560.44,349.18,317.58,32.06,0000 0000 0000 0000 000000
2013-11-13 00:41:44,0.17,3.99,0.00,24.49,26.22,28.95,5.72,30.63,1003.43,2046.04,2115.30,2403.95,2560.19,349.25,317.48,32.06,0000 0000 0000 0000 000000
2013-11-13 00:42:44,0.17,3.99,0.00,24.50,26.22,28.97,5.95,30.92,1003.43,2046.04,2115.12,2403.85,2560.08,351.26,319.30,32.07,0000 0000 0000 0000 000000
2013-11-13 00:43:44,0.09,3.99,0.00,24.50,26.22,28.96,5.93,30.46,1003.42,2046.03,2115.11,2403.64,2560.03,350.16,318.30,32.07,0000 0000 0000 0000 000000
2013-11-13 00:44:45,0.07,3.99,0.00,24.49,26.22,28.96,5.92,30.67,1003.43,2046.02,2115.07,2403.39,2560.01,350.83,319.04,32.08,0000 0000 0000 0000 000000
2013-11-13 00:45:45,0.10,3.99,0.00,24.48,26.22,29.00,5.79,30.46,1003.43,2046.02,2115.02,2403.20,2559.99,349.27,317.61,32.09,0000 0000 0000 0000 000000
2013-11-13 00:46:45,0.07,3.99,0.00,24.48,26.22,28.98,6.01,30.79,1003.43,2046.01,2115.01,2403.11,2559.98,350.59,318.75,32.09,0000 0000 0000 0000 000000
2013-11-13 00:47:45,0.03,3.99,0.00,24.48,26.22,28.93,5.85,30.50,1003.43,2046.01,2114.96,2403.04,2559.96,350.40,318.93,32.10,0000 0000 0000 0000 000000
2013-11-13 00:48:46,0.05,4.00,0.00,24.46,26.21,28.98,5.84,30.63,1003.43,2046.00,2114.66,2403.01,2559.93,349.96,318.16,32.10,0000 0000 0000 0000 000000
2013-11-13 00:49:46,0.08,4.00,0.00,24.46,26.21,28.96,5.74,30.67,1003.40,2046.03,2114.42,2403.00,2559.83,349.45,317.68,32.11,0000 0000 0000 0000 000000
2013-11-13 00:50:46,0.11,4.00,0.00,24.46,26.20,28.96,5.79,30.67,1003.43,2046.03,2114.22,2403.00,2559.40,349.44,317.71,32.12,0000 0000 0000 0000 000000
2013-11-13 00:51:46,0.13,4.00,0.00,24.49,26.20,28.98,5.92,30.75,1003.43,2046.03,2114.09,2402.99,2559.15,350.82,318.92,32.12,0000 0000 0000 0000 000000
2013-11-13 00:52:46,0.08,4.00,0.00,24.46,26.20,28.95,5.92,31.04,1003.43,2046.03,2114.03,2402.99,2559.07,349.44,317.73,32.13,0000 0000 0000 0000 000000
2013-11-13 00:53:47,0.03,4.00,0.00,24.47,26.20,28.92,5.88,30.75,1003.42,2046.03,2114.01,2402.90,2559.03,349.39,317.49,32.13,0000 0000 0000 0000 000000
2013-11-13 00:54:47,0.05,4.00,0.00,24.47,26.20,29.00,5.72,30.50,1003.42,2046.03,2113.98,2402.61,2559.01,349.80,318.00,32.14,0000 0000 0000 0000 000000
2013-11-13 00:55:47,0.12,4.00,0.00,24.47,26.20,29.01,5.83,30.46,1003.43,2046.02,2113.94,2402.25,2559.00,350.90,318.77,32.15,0000 0000 0000 0000 000000
2013-11-13 00:56:47,0.11,4.00,0.00,24.45,26.20,29.00,6.05,30.63,1003.43,2046.02,2113.87,2402.09,2559.00,350.91,319.17,32.15,0000 0000 0000 0000 000000
2013-11-13 00:57:48,0.05,4.00,0.00,24.47,26.20,28.95,5.98,30.29,1003.41,2046.04,2113.72,2402.03,2559.00,351.22,319.30,32.16,0000 0000 0000 0000 000000
2013-11-13 00:58:48,0.11,4.00,0.00,24.47,26.20,28.95,5.98,30.54,1003.43,2046.03,2113.29,2402.01,2558.99,351.00,319.09,32.16,0000 0000 0000 0000 000000
2013-11-13 00:59:48,0.09,4.00,0.00,24.48,26.20,28.94,5.87,30.63,1003.43,2046.03,2113.11,2402.00,2558.97,349.49,317.71,32.17,0000 0000 0000 0000 000000
2013-11-13 01:00:48,0.06,4.00,0.00,24.48,26.20,28.96,5.92,30.46,1003.43,2046.03,2113.06,2402.00,2558.96,350.35,318.61,32.17,0000 0000 0000 0000 000000
2013-11-13 01:01:49,0.02,4.00,0.00,24.49,26.20,28.96,5.86,30.71,1003.43,2046.07,2113.03,2402.00,2558.91,349.49,317.80,32.18,0000 0000 0000 0000 000000
2013-11-13 01:02:49,0.06,4.00,0.00,24.49,26.19,28.96,5.95,30.79,1003.42,2046.09,2113.04,2402.00,2558.80,351.12,318.75,32.19,0000 0000 0000 0000 000000
2013-11-13 01:03:49,0.05,4.00,0.00,24.47,26.19,28.97,5.88,30.42,1003.41,2046.11,2113.01,2402.00,2558.45,350.42,318.69,32.19,0000 0000 0000 0000 000000
2013-11-13 01:04:49,0.06,4.00,0.00,24.46,26.19,28.96,5.82,30.38,1003.43,2046.09,2113.00,2401.99,2558.28,350.44,318.59,32.20,0000 0000 0000 0000 000000
2013-11-13 01:05:50,0.04,4.00,0.00,24.45,26.18,28.93,5.83,30.54,1003.43,2046.12,2112.99,2401.97,2558.13,350.18,318.20,32.20,0000 0000 0000 0000 000000
2013-11-13 01:06:50,0.08,4.00,0.00,24.46,26.18,28.94,5.77,30.54,1003.43,2046.10,2112.95,2401.80,2558.04,350.22,318.06,32.21,0000 0000 0000 0000 000000
2013-11-13 01:07:50,0.04,4.00,0.00,24.45,26.17,28.90,5.95,30.63,1003.43,2046.07,2112.75,2401.41,2558.01,351.15,319.26,32.22,0000 0000 0000 0000 000000
2013-11-13 01:08:50,0.18,4.00,0.00,24.45,26.17,28.94,5.92,30.38,1003.43,2046.05,2112.41,2401.16,2558.00,351.34,319.43,32.22,0000 0000 0000 0000 000000
2013-11-13 01:09:50,0.17,4.01,0.00,24.45,26.17,28.94,5.83,30.42,1003.43,2046.03,2112.23,2401.08,2558.00,350.02,317.91,32.23,0000 0000 0000 0000 000000
2013-11-13 01:10:51,0.03,4.01,0.00,24.44,26.17,28.93,5.80,30.46,1003.43,2046.05,2112.09,2401.05,2557.98,350.61,318.79,32.23,0000 0000 0000 0000 000000
2013-11-13 01:11:51,0.07,4.01,0.00,24.45,26.17,28.91,5.88,30.83,1003.43,2046.05,2112.03,2401.02,2557.97,349.46,317.72,32.24,0000 0000 0000 0000 000000
2013-11-13 01:12:51,0.04,4.01,0.00,24.44,26.17,28.92,5.77,30.63,1003.43,2046.05,2112.00,2401.00,2557.90,349.96,318.40,32.24,0000 0000 0000 0000 000000
2013-11-13 01:13:52,0.02,4.01,0.00,24.45,26.17,28.94,5.89,30.67,1003.42,2046.10,2111.98,2401.00,2557.79,350.11,318.30,32.25,0000 0000 0000 0000 000000
2013-11-13 01:14:52,0.07,4.01,0.00,24.43,26.17,28.90,5.88,30.54,1003.43,2046.15,2111.87,2400.99,2557.52,350.51,318.58,32.26,0000 0000 0000 0000 000000
2013-11-13 01:15:52,0.15,4.01,0.00,24.45,26.17,28.89,5.82,30.71,1003.42,2046.12,2111.61,2400.98,2557.22,349.31,317.58,32.26,0000 0000 0000 0000 000000
2013-11-13 01:16:52,0.09,4.01,0.00,24.44,26.17,28.89,5.86,30.58,1003.42,2046.14,2111.31,2400.94,2557.09,349.95,318.16,32.27,0000 0000 0000 0000 000000
2013-11-13 01:17:53,0.16,4.01,0.00,24.45,26.16,28.92,5.83,30.38,1003.39,2046.13,2111.16,2400.80,2557.03,350.53,318.69,32.27,0000 0000 0000 0000 000000
2013-11-13 01:18:53,0.06,4.01,0.00,24.46,26.15,28.89,5.76,30.46,1003.40,2046.10,2111.06,2400.50,2557.01,348.77,317.06,32.28,0000 0000 0000 0000 000000
2013-11-13 01:19:53,0.12,4.01,0.00,24.45,26.15,28.91,5.91,30.38,1003.43,2046.09,2111.02,2400.27,2557.00,351.17,319.27,32.29,0000 0000 0000 0000 000000
2013-11-13 01:20:53,0.07,4.01,0.00,24.42,26.15,28.90,5.87,30.42,1003.43,2046.16,2111.00,2400.13,2556.98,350.88,319.05,32.29,0000 0000 0000 0000 000000
2013-11-13 01:21:53,0.09,4.01,0.00,24.43,26.15,28.90,5.80,30.71,1003.43,2046.17,2111.00,2400.06,2556.97,348.42,316.79,32.30,0000 0000 0000 0000 000000
2013-11-13 01:22:54,0.04,4.01,0.00,24.41,26.15,28.90,6.02,30.75,1003.42,2046.15,2110.99,2400.03,2556.92,350.16,318.72,32.30,0000 0000 0000 0000 000000
2013-11-13 01:23:54,0.00,4.01,0.00,24.44,26.15,28.97,5.89,30.54,1003.40,2046.18,2110.93,2400.01,2556.76,350.04,318.44,32.31,0000 0000 0000 0000 000000
2013-11-13 01:24:54,0.11,4.01,0.00,24.47,26.15,28.95,5.72,30.50,1003.42,2046.24,2110.74,2400.00,2556.52,349.66,317.88,32.31,0000 0000 0000 0000 000000
2013-11-13 01:25:54,0.15,4.01,0.00,24.46,26.15,28.96,5.79,30.79,1003.42,2046.23,2110.46,2400.00,2556.26,349.23,317.49,32.32,0000 0000 0000 0000 000000
2013-11-13 01:26:54,0.11,4.01,0.00,24.42,26.15,28.92,5.96,30.79,1003.43,2046.28,2110.20,2400.00,2556.11,350.18,318.39,32.33,0000 0000 0000 0000 000000
2013-11-13 01:27:55,0.15,4.02,0.00,24.41,26.15,28.88,5.89,30.63,1003.42,2046.36,2110.08,2399.99,2556.05,350.58,318.78,32.33,0000 0000 0000 0000 000000
2013-11-13 01:28:55,0.08,4.02,0.00,24.40,26.15,28.94,5.82,30.50,1003.43,2046.34,2110.04,2399.93,2556.02,348.74,317.02,32.34,0000 0000 0000 0000 000000
2013-11-13 01:29:55,0.04,4.02,0.00,24.42,26.14,28.97,5.79,30.46,1003.43,2046.50,2110.01,2399.88,2556.01,350.32,318.53,32.34,0000 0000 0000 0000 000000
2013-11-13 01:30:55,0.16,4.02,0.00,24.42,26.14,28.88,5.84,30.50,1003.42,2046.48,2110.00,2399.58,2556.00,349.06,317.13,32.35,0000 0000 0000 0000 000000
2013-11-13 01:31:55,0.10,4.02,0.00,24.44,26.14,28.87,5.75,30.25,1003.43,2046.50,2109.98,2399.27,2556.00,349.24,317.52,32.36,0000 0000 0000 0000 000000
2013-11-13 01:32:56,0.12,4.02,0.00,24.44,26.13,28.88,5.88,30.46,1003.43,2046.49,2109.89,2399.10,2556.00,350.26,318.44,32.36,0000 0000 0000 0000 000000
2013-11-13 01:33:56,0.08,4.02,0.00,24.43,26.12,28.89,5.69,30.42,1003.43,2046.48,2109.53,2399.03,2555.98,350.03,318.30,32.37,0000 0000 0000 0000 000000
2013-11-13 01:34:56,0.19,4.02,0.00,24.44,26.12,28.88,5.78,31.04,1003.43,2046.62,2109.22,2399.01,2555.87,349.31,317.87,32.37,0000 0000 0000 0000 000000
2013-11-13 01:35:56,0.24,4.02,0.00,24.43,26.12,28.90,5.70,30.46,1003.43,2046.59,2109.09,2398.99,2555.61,348.54,316.93,32.38,0000 0000 0000 0000 000000
2013-11-13 01:36:57,0.06,4.02,0.00,24.39,26.12,28.88,5.84,30.75,1003.42,2046.75,2109.03,2398.98,2555.43,350.12,318.67,32.38,0000 0000 0000 0000 000000
2013-11-13 01:37:57,0.18,4.02,0.00,24.39,26.12,28.88,5.84,30.63,1003.42,2046.79,2109.01,2398.97,2555.20,349.68,317.97,32.39,0000 0000 0000 0000 000000
2013-11-13 01:38:57,0.06,4.02,0.00,24.39,26.12,28.86,5.73,30.54,1003.43,2046.73,2109.00,2398.98,2555.08,349.03,317.39,32.40,0000 0000 0000 0000 000000
2013-11-13 01:39:57,-0.06,4.02,0.00,24.41,26.12,28.86,5.77,30.58,1003.42,2046.69,2109.00,2398.91,2555.03,349.19,317.51,32.40,0000 0000 0000 0000 000000
2013-11-13 01:40:58,0.01,4.02,0.00,24.41,26.12,28.87,5.85,30.38,1003.41,2046.77,2108.99,2398.70,2555.01,350.15,318.38,32.41,0000 0000 0000 0000 000000
2013-11-13 01:41:58,0.19,4.02,0.00,24.42,26.12,28.90,5.83,30.58,1003.41,2046.83,2108.87,2398.52,2555.00,347.90,317.07,32.41,0000 0000 0000 0000 000000
2013-11-13 01:42:58,0.13,4.02,0.00,24.41,26.12,28.90,5.88,30.79,1003.43,2046.73,2108.46,2398.26,2555.00,349.92,318.18,32.42,0000 0000 0000 0000 000000
2013-11-13 01:43:58,0.14,4.03,0.00,24.41,26.12,28.94,5.92,30.92,1003.42,2046.74,2108.18,2398.11,2554.99,350.07,318.31,32.43,0000 0000 0000 0000 000000
2013-11-13 01:44:59,0.17,4.03,0.00,24.41,26.12,28.88,5.82,30.71,1003.41,2046.85,2108.06,2398.05,2554.91,349.89,318.15,32.43,0000 0000 0000 0000 000000
2013-11-13 01:45:59,0.13,4.03,0.00,24.41,26.12,28.95,5.80,30.54,1003.42,2046.90,2108.02,2398.02,2554.75,349.33,317.76,32.44,0000 0000 0000 0000 000000
2013-11-13 01:46:59,0.08,4.03,0.00,24.42,26.11,28.89,5.74,30.71,1003.43,2046.92,2108.00,2398.00,2554.46,349.08,317.25,32.44,0000 0000 0000 0000 000000
2013-11-13 01:47:59,0.08,4.03,0.00,24.39,26.11,28.83,6.05,30.63,1003.43,2046.93,2107.99,2398.00,2554.22,351.33,319.59,32.45,0000 0000 0000 0000 000000
2013-11-13 01:48:59,0.09,4.03,0.00,24.38,26.10,28.86,5.88,30.58,1003.43,2046.92,2107.99,2397.98,2554.09,350.71,318.93,32.46,0000 0000 0000 0000 000000
2013-11-13 01:50:00,0.03,4.03,0.00,24.40,26.10,28.85,5.78,30.25,1003.43,2046.89,2107.93,2397.95,2554.03,351.25,318.93,32.46,0000 0000 0000 0000 000000
2013-11-13 01:51:00,-0.03,4.03,0.00,24.41,26.10,28.89,5.88,30.58,1003.43,2046.89,2107.67,2397.92,2554.01,350.66,318.59,32.47,0000 0000 0000 0000 000000
2013-11-13 01:52:00,0.09,4.03,0.00,24.39,26.10,28.84,5.77,30.46,1003.43,2046.89,2107.48,2397.77,2554.00,349.05,317.52,32.47,0000 0000 0000 0000 000000
2013-11-13 01:53:00,0.09,4.03,0.00,24.39,26.10,28.81,5.88,30.42,1003.43,2046.94,2107.36,2397.57,2554.00,349.56,317.87,32.48,0000 0000 0000 0000 000000
2013-11-13 01:54:00,0.17,4.03,0.00,24.38,26.10,28.83,5.89,30.79,1003.43,2046.94,2107.19,2397.33,2554.00,349.77,318.07,32.48,0000 0000 0000 0000 000000
2013-11-13 01:55:01,0.15,4.03,0.00,24.38,26.10,28.84,5.81,30.96,1003.43,2046.95,2107.08,2397.18,2553.98,348.94,317.72,32.49,0000 0000 0000 0000 000000
2013-11-13 01:56:01,0.09,4.03,0.00,24.37,26.10,28.83,5.91,30.58,1003.43,2046.94,2107.03,2397.07,2553.87,350.58,318.82,32.50,0000 0000 0000 0000 000000
2013-11-13 01:57:01,0.05,4.03,0.00,24.37,26.10,28.84,5.96,30.71,1003.43,2046.94,2107.00,2397.03,2553.64,349.95,318.17,32.50,0000 0000 0000 0000 000000
2013-11-13 01:58:02,0.07,4.03,0.00,24.36,26.10,28.85,5.87,30.54,1003.43,2046.94,2106.97,2397.01,2553.37,350.21,318.04,32.51,0000 0000 0000 0000 000000
2013-11-13 01:59:02,0.06,4.03,0.00,24.38,26.10,28.84,5.88,30.75,1003.43,2046.96,2106.85,2397.00,2553.17,349.65,317.89,32.51,0000 0000 0000 0000 000000
2013-11-13 02:00:02,0.08,4.03,0.00,24.39,26.10,28.82,5.84,30.50,1003.43,2046.97,2106.46,2397.00,2553.09,349.16,317.30,32.52,0000 0000 0000 0000 000000
2013-11-13 02:01:02,0.15,4.04,0.00,24.37,26.10,28.82,5.73,30.63,1003.43,2046.97,2106.21,2397.00,2553.05,348.88,317.27,32.53,0000 0000 0000 0000 000000
2013-11-13 02:02:02,0.06,4.04,0.00,24.36,26.10,28.86,5.79,30.75,1003.43,2046.96,2106.08,2396.97,2553.02,348.97,317.37,32.53,0000 0000 0000 0000 000000
2013-11-13 02:03:02,0.06,4.04,0.00,24.37,26.09,28.84,5.83,30.46,1003.43,2046.96,2106.03,2396.79,2553.00,349.87,318.18,32.54,0000 0000 0000 0000 000000
2013-11-13 02:04:03,0.09,4.04,0.00,24.38,26.09,28.86,5.87,30.50,1003.43,2046.98,2106.01,2396.45,2552.99,351.32,319.48,32.54,0000 0000 0000 0000 000000
2013-11-13 02:05:03,0.16,4.04,0.00,24.37,26.08,28.89,5.86,30.71,1003.43,2046.98,2106.00,2396.27,2552.99,349.50,317.83,32.55,0000 0000 0000 0000 000000
2013-11-13 02:06:03,0.05,4.04,0.00,24.37,26.08,28.88,5.83,30.58,1003.43,2046.97,2105.97,2396.13,2552.92,349.85,318.15,32.55,0000 0000 0000 0000 000000
2013-11-13 02:07:03,0.07,4.04,0.00,24.38,26.07,28.83,5.82,30.75,1003.43,2046.98,2105.82,2396.05,2552.82,349.74,318.04,32.56,0000 0000 0000 0000 000000
2013-11-13 02:08:03,0.11,4.04,0.00,24.36,26.07,28.84,5.85,30.71,1003.43,2046.98,2105.38,2396.01,2552.50,350.68,319.28,32.57,0000 0000 0000 0000 000000
2013-11-13 02:09:04,0.20,4.04,0.00,24.34,26.07,28.85,5.86,30.71,1003.43,2046.99,2105.16,2396.00,2552.22,350.32,319.01,32.57,0000 0000 0000 0000 000000
2013-11-13 02:10:04,0.09,4.04,0.00,24.31,26.07,28.81,5.90,30.29,1003.43,2046.99,2105.06,2396.00,2552.14,350.22,318.21,32.58,0000 0000 0000 0000 000000
2013-11-13 02:11:04,0.04,4.04,0.00,24.34,26.07,28.79,5.93,30.54,1003.43,2046.98,2105.02,2396.00,2552.06,350.77,318.97,32.58,0000 0000 0000 0000 000000
2013-11-13 02:12:04,0.01,4.04,0.00,24.35,26.07,28.82,5.86,30.38,1003.43,2046.99,2105.00,2395.96,2552.02,350.23,318.08,32.59,0000 0000 0000 0000 000000
2013-11-13 02:13:05,0.04,4.04,0.00,24.37,26.07,28.81,5.62,30.58,1003.43,2046.98,2104.98,2395.92,2552.00,348.50,317.04,32.60,0000 0000 0000 0000 000000
2013-11-13 02:14:05,0.02,4.04,0.00,24.37,26.07,28.81,5.77,30.75,1003.43,2046.99,2104.97,2395.76,2552.00,348.03,316.50,32.60,0000 0000 0000 0000 000000
2013-11-13 02:15:05,0.09,4.04,0.00,24.36,26.07,28.85,5.88,30.63,1003.44,2046.98,2104.73,2395.45,2551.99,349.80,318.37,32.61,0000 0000 0000 0000 000000
2013-11-13 02:16:05,0.16,4.04,0.00,24.36,26.07,28.82,5.87,30.50,1003.43,2046.99,2104.35,2395.24,2551.98,350.59,318.94,32.61,0000 0000 0000 0000 000000
2013-11-13 02:17:05,0.16,4.04,0.00,24.34,26.07,28.81,5.90,30.63,1003.43,2046.97,2104.17,2395.12,2551.96,350.21,318.46,32.62,0000 0000 0000 0000 000000
2013-11-13 02:18:06,0.07,4.04,0.00,24.34,26.07,28.80,5.85,30.67,1003.43,2046.99,2104.08,2395.06,2551.84,350.17,318.25,32.62,0000 0000 0000 0000 000000
2013-11-13 02:19:06,0.07,4.04,0.00,24.36,26.07,28.77,5.83,30.29,1003.43,2046.98,2104.03,2395.02,2551.57,349.84,318.31,32.63,0000 0000 0000 0000 000000
2013-11-13 02:20:06,0.09,4.05,0.00,24.36,26.07,28.77,5.98,30.63,1003.43,2046.99,2104.01,2395.01,2551.30,350.12,318.93,32.64,0000 0000 0000 0000 000000
2013-11-13 02:21:07,0.06,4.05,0.00,24.36,26.07,28.79,5.80,30.63,1003.43,2046.99,2104.00,2395.00,2551.16,349.92,318.24,32.64,0000 0000 0000 0000 000000
2013-11-13 02:22:07,0.02,4.05,0.00,24.34,26.06,28.80,5.76,30.50,1003.43,2046.99,2104.00,2395.00,2551.08,350.85,319.09,32.65,0000 0000 0000 0000 000000
2013-11-13 02:23:07,0.02,4.05,0.00,24.33,26.06,28.79,5.80,30.63,1003.43,2046.98,2103.93,2394.99,2551.03,349.85,318.20,32.65,0000 0000 0000 0000 000000
2013-11-13 02:24:07,0.04,4.05,0.00,24.34,26.05,28.81,5.88,30.46,1003.43,2046.98,2103.57,2394.90,2551.01,350.07,317.94,32.66,0000 0000 0000 0000 000000
2013-11-13 02:25:08,0.14,4.05,0.00,24.31,26.05,28.80,5.93,30.29,1003.43,2046.98,2103.29,2394.79,2551.00,350.63,319.18,32.67,0000 0000 0000 0000 000000
2013-11-13 02:26:08,0.11,4.05,0.00,24.31,26.05,28.82,5.95,30.67,1003.43,2046.99,2103.13,2394.52,2551.00,348.89,317.24,32.67,0000 0000 0000 0000 000000
2013-11-13 02:27:08,0.13,4.05,0.00,24.32,26.05,28.79,5.91,30.71,1003.43,2046.99,2103.05,2394.25,2550.97,351.57,319.54,32.68,0000 0000 0000 0000 000000
2013-11-13 02:28:08,0.13,4.05,0.00,24.33,26.05,28.78,5.88,30.50,1003.43,2046.98,2103.01,2394.15,2550.81,350.07,318.40,32.68,0000 0000 0000 0000 000000
2013-11-13 02:29:09,0.07,4.05,0.00,24.35,26.05,28.82,5.74,30.67,1003.43,2046.99,2103.00,2394.05,2550.55,349.08,317.35,32.69,0000 0000 0000 0000 000000
2013-11-13 02:30:09,0.09,4.05,0.00,24.35,26.05,28.83,5.95,30.58,1003.43,2046.99,2102.98,2394.02,2550.32,350.65,318.90,32.70,0000 0000 0000 0000 000000
2013-11-13 02:31:09,0.07,4.05,0.00,24.34,26.05,28.84,5.80,30.46,1003.43,2046.99,2102.95,2394.00,2550.13,350.14,318.89,32.70,0000 0000 0000 0000 000000
2013-11-13 02:32:09,0.04,4.05,0.00,24.33,26.05,28.85,5.92,30.42,1003.43,2046.99,2102.88,2394.00,2550.05,350.59,318.75,32.71,0000 0000 0000 0000 000000
2013-11-13 02:33:09,0.03,4.05,0.00,24.33,26.05,28.82,5.72,30.50,1003.43,2046.99,2102.71,2394.00,2550.01,349.80,318.14,32.71,0000 0000 0000 0000 000000
2013-11-13 02:34:10,0.05,4.05,0.00,24.35,26.05,28.87,5.88,30.67,1003.43,2046.99,2102.31,2394.00,2550.00,350.19,318.34,32.72,0000 0000 0000 0000 000000
2013-11-13 02:35:10,0.11,4.05,0.00,24.35,26.05,28.88,5.78,30.42,1003.43,2046.99,2102.13,2393.93,2550.00,349.65,317.98,32.72,0000 0000 0000 0000 000000
2013-11-13 02:36:10,0.07,4.05,0.00,24.34,26.05,28.80,5.90,30.46,1003.43,2046.99,2102.05,2393.84,2549.99,350.38,318.66,32.73,0000 0000 0000 0000 000000